Weather History for Boulder City, NV

Change the Weather History Date:

Friday, May 24, 2013

  Actual Average (KLAS) Record (KLAS)
Temperature  
Mean Temperature 73 °F 80 °F  
Max Temperature 89 °F 92 °F 105 °F (2001)
Min Temperature 57 °F 68 °F 46 °F (1939)
Degree Days  
Heating Degree Days 0 0  
Month to date heating degree days 4  
Since 1 July heating degree days 1947  
Cooling Degree Days 8 15  
Month to date cooling degree days 277  
Year to date cooling degree days 437  
Growing Degree Days 23 (Base 50)    
Moisture  
Dew Point 19 °F    
Average Humidity 13    
Maximum Humidity 29    
Minimum Humidity 7    
Precipitation  
Precipitation 0.00 in 0.00 in 0.31 in (1965)
Month to date precipitation 0.09  
Year to date precipitation 1.98  
Snow  
Snow 0.00 in 0.00 in 0.00 in (2013)
Month to date snowfall 0.0  
Since 1 July snowfall 0.3  
Snow Depth -    
Sea Level Pressure  
Sea Level Pressure 29.85 in    
Wind  
Wind Speed 8 mph (SSE)    
Max Wind Speed 24 mph    
Max Gust Speed 32 mph    
Visibility 10 miles    
Events Thunderstorm    
T = Trace of Precipitation, MM = Missing Value Source: NWS Daily Summary

Daily Weather History Graph

Daily Weather History Graph

Search for Another Location

Airport:

Trip Planner

Search our weather history database for the weather conditions in past years. The results will help you decide how hot, cold, wet, or windy it might be!

Date:

Astronomy

May. 24, 2013 Rise Set
Actual Time 5:27 AM PDT 7:45 PM PDT
Civil Twilight 4:58 AM PDT 8:14 PM PDT
Nautical Twilight 4:22 AM PDT 8:50 PM PDT
Astronomical Twilight 3:43 AM PDT 9:29 PM PDT
Moon 7:33 PM PDT (5/24) 5:01 AM PDT (5/24)
Length of Visible Light 15h 16m
Length of Day
14h 17m
Full, 100% of the Moon is Illuminated
May 24
Full
May 24
Full
May 31
Last Quarter
Jun 8
New
Jun 16
First Quarter

Hourly Weather History & Observations

Time (PDT) Temp. Dew Point Humidity Pressure Visibility Wind Dir Wind Speed Gust Speed Precip Events Conditions
12:15 AM 68.0 °F 14.0 °F 12% 29.82 in 10.0 mi SW 4.6 mph - N/A   Clear
12:35 AM 66.2 °F 23.0 °F 19% 29.83 in 10.0 mi ENE 4.6 mph - N/A   Clear
12:55 AM 68.0 °F 15.8 °F 13% 29.83 in 10.0 mi SE 8.1 mph - N/A   Clear
1:35 AM 66.2 °F 15.8 °F 14% 29.83 in 10.0 mi SSE 8.1 mph - N/A   Clear
1:55 AM 66.2 °F 14.0 °F 13% 29.83 in 10.0 mi SSE 6.9 mph - N/A   Clear
2:15 AM 64.4 °F 15.8 °F 15% 29.83 in 10.0 mi Calm Calm - N/A   Clear
2:35 AM 66.2 °F 17.6 °F 15% 29.83 in 10.0 mi Calm Calm - N/A   Clear
2:55 AM 62.6 °F 24.8 °F 24% 29.84 in 10.0 mi NNW 5.8 mph - N/A   Clear
3:15 AM 62.6 °F 19.4 °F 19% 29.84 in 10.0 mi NW 3.5 mph - N/A   Clear
3:35 AM 62.6 °F 24.8 °F 24% 29.84 in 10.0 mi Calm Calm - N/A   Clear
3:55 AM 60.8 °F 24.8 °F 25% 29.84 in 10.0 mi Calm Calm - N/A   Clear
4:15 AM 59.0 °F 26.6 °F 29% 29.85 in 10.0 mi NNW 4.6 mph - N/A Thunderstorm Clear
4:35 AM 60.8 °F 24.8 °F 25% 29.85 in 10.0 mi Calm Calm - N/A   Clear
4:55 AM 59.0 °F 24.8 °F 27% 29.86 in 10.0 mi North 3.5 mph - N/A   Clear
5:15 AM 59.0 °F 19.4 °F 22% 29.86 in 10.0 mi WNW 4.6 mph - N/A   Clear
5:35 AM 57.2 °F 24.8 °F 29% 29.87 in 10.0 mi Calm Calm - N/A   Clear
5:55 AM 57.2 °F 23.0 °F 27% 29.87 in 10.0 mi NNE 3.5 mph - N/A   Clear
6:15 AM 59.0 °F 26.6 °F 29% 29.88 in 10.0 mi Calm Calm - N/A Thunderstorm Clear
6:35 AM 62.6 °F 26.6 °F 26% 29.89 in 8.0 mi Calm Calm - N/A   Clear
6:55 AM 68.0 °F 19.4 °F 16% 29.89 in 10.0 mi Calm Calm - N/A   Clear
7:15 AM 66.2 °F 24.8 °F 21% 29.90 in 10.0 mi Calm Calm - N/A   Clear
7:35 AM 69.8 °F 19.4 °F 15% 29.90 in 10.0 mi Calm Calm - N/A   Clear
7:55 AM 71.6 °F 15.8 °F 12% 29.91 in 10.0 mi SSE 3.5 mph - N/A   Clear
8:15 AM 73.4 °F 14.0 °F 10% 29.91 in 10.0 mi Calm Calm - N/A   Clear
8:35 AM 75.2 °F 14.0 °F 10% 29.92 in 10.0 mi Calm Calm - N/A   Clear
8:55 AM 75.2 °F 17.6 °F 11% 29.92 in 10.0 mi East 4.6 mph - N/A   Clear
9:15 AM 75.2 °F 17.6 °F 11% 29.92 in 5.0 mi NE 3.5 mph - N/A   Haze
9:35 AM 77.0 °F 17.6 °F 11% 29.91 in 10.0 mi East 5.8 mph - N/A   Clear
9:55 AM 80.6 °F 17.6 °F 10% 29.92 in 10.0 mi SSE 8.1 mph - N/A   Clear
10:15 AM 80.6 °F 19.4 °F 10% 29.92 in 10.0 mi SE 12.7 mph - N/A   Clear
10:35 AM 80.6 °F 19.4 °F 10% 29.91 in 10.0 mi SSE 17.3 mph 21.9 mph N/A   Clear
10:55 AM 82.4 °F 19.4 °F 10% 29.91 in 10.0 mi SE 13.8 mph 23.0 mph N/A   Clear
11:15 AM 82.4 °F 21.2 °F 10% 29.90 in 10.0 mi SE 20.7 mph 25.3 mph N/A   Clear
11:35 AM 84.2 °F 19.4 °F 9% 29.90 in 10.0 mi SE 21.9 mph 27.6 mph N/A   Clear
11:55 AM 86.0 °F 19.4 °F 9% 29.90 in 10.0 mi SSE 17.3 mph 26.5 mph N/A   Clear
12:15 PM 84.2 °F 19.4 °F 9% 29.89 in 10.0 mi SSE 20.7 mph 28.8 mph N/A   Clear
12:35 PM 86.0 °F 17.6 °F 8% 29.89 in 10.0 mi SSE 17.3 mph 25.3 mph N/A   Clear
12:55 PM 86.0 °F 19.4 °F 9% 29.88 in 10.0 mi SE 17.3 mph 25.3 mph N/A   Clear
1:15 PM 86.0 °F 19.4 °F 9% 29.87 in 10.0 mi SSE 23.0 mph 31.1 mph N/A   Clear
1:35 PM 87.8 °F 19.4 °F 8% 29.87 in 10.0 mi SSE 18.4 mph 29.9 mph N/A   Clear
1:55 PM 87.8 °F 19.4 °F 8% 29.86 in 10.0 mi South 19.6 mph 29.9 mph N/A   Clear
2:15 PM 87.8 °F 19.4 °F 8% 29.86 in 9.0 mi SSE 18.4 mph 24.2 mph N/A Thunderstorm Clear
2:35 PM 86.0 °F 19.4 °F 9% 29.85 in 10.0 mi SE 18.4 mph 25.3 mph N/A   Clear
2:55 PM 87.8 °F 19.4 °F 8% 29.84 in 10.0 mi SE 15.0 mph 23.0 mph N/A   Clear
3:15 PM 89.6 °F 21.2 °F 8% 29.84 in 10.0 mi SSE 15.0 mph 26.5 mph N/A   Clear
3:35 PM 89.6 °F 19.4 °F 8% 29.83 in 10.0 mi SE 19.6 mph 27.6 mph N/A   Clear
3:55 PM 87.8 °F 19.4 °F 8% 29.82 in 10.0 mi SSE 18.4 mph 23.0 mph N/A   Clear
4:15 PM 87.8 °F 19.4 °F 8% 29.81 in 10.0 mi SE 18.4 mph 32.2 mph N/A   Clear
4:35 PM 89.6 °F 19.4 °F 8% 29.81 in 10.0 mi SSE 20.7 mph 28.8 mph N/A   Clear
4:55 PM 89.6 °F 19.4 °F 8% 29.80 in 10.0 mi SSE 20.7 mph 31.1 mph N/A   Clear
5:15 PM 87.8 °F 19.4 °F 8% 29.79 in 10.0 mi SSE 23.0 mph 29.9 mph N/A   Clear
5:35 PM 87.8 °F 19.4 °F 8% 29.79 in 10.0 mi SSE 21.9 mph 32.2 mph N/A   Clear
5:55 PM 87.8 °F 19.4 °F 8% 29.79 in 10.0 mi SSE 24.2 mph 29.9 mph N/A   Clear
6:15 PM 87.8 °F 17.6 °F 8% 29.79 in 10.0 mi South 18.4 mph 27.6 mph N/A   Clear
6:35 PM 86.0 °F 15.8 °F 7% 29.79 in 10.0 mi South 19.6 mph 23.0 mph N/A   Clear
6:55 PM 86.0 °F 14.0 °F 7% 29.79 in 10.0 mi South 15.0 mph 26.5 mph N/A   Clear
7:15 PM 86.0 °F 15.8 °F 7% 29.79 in 10.0 mi South 19.6 mph 27.6 mph N/A   Clear
7:35 PM 84.2 °F 14.0 °F 7% 29.80 in 10.0 mi South 13.8 mph - N/A   Clear
7:55 PM 82.4 °F 12.2 °F 7% 29.80 in 10.0 mi South 13.8 mph - N/A Thunderstorm Clear
8:15 PM 82.4 °F 14.0 °F 8% 29.81 in 10.0 mi South 11.5 mph - N/A   Clear
8:35 PM 80.6 °F 14.0 °F 8% 29.81 in 10.0 mi South 9.2 mph - N/A   Clear
8:55 PM 78.8 °F 14.0 °F 9% 29.82 in 10.0 mi South 8.1 mph - N/A   Clear
9:15 PM 77.0 °F 15.8 °F 10% 29.82 in 10.0 mi South 8.1 mph - N/A   Clear
9:35 PM 77.0 °F 15.8 °F 10% 29.83 in 10.0 mi South 6.9 mph - N/A   Clear
9:55 PM 75.2 °F 15.8 °F 11% 29.83 in 10.0 mi SSE 6.9 mph - N/A   Clear
10:15 PM 75.2 °F 15.8 °F 11% 29.84 in 10.0 mi Calm Calm - N/A   Clear
10:35 PM 75.2 °F 15.8 °F 11% 29.84 in 10.0 mi Calm Calm - N/A   Clear
10:55 PM 73.4 °F 17.6 °F 12% 29.84 in 10.0 mi Calm Calm - N/A   Clear
11:15 PM 73.4 °F 19.4 °F 13% 29.84 in 10.0 mi Calm Calm - N/A   Clear
11:35 PM 73.4 °F 19.4 °F 13% 29.84 in 10.0 mi WSW 3.5 mph - N/A   Clear
11:55 PM 73.4 °F 17.6 °F 12% 29.83 in 10.0 mi SW 3.5 mph - N/A   Clear